When you browse on this site, cookies collect data to enhance your experience and personalize the content and advertising you see.
Visit our Privacy Policy to learn more. By continuing to use the site, you agree to this use of cookies and data.
  • In Latvia
  • List of Countries
  • For 7 days
  • Water Temperature
  • Weather Map
  • Weather Widgets
  • user-avatar
    Login

    Hourly Weather Dallas

    Today, 16 September, Monday

    Time Temperature Precipitation Wind Pressure Humidity
    00:00 +32°C° 0.2 mm 4 mps 751 mmHg 55%
    01:00 +30°C° 0 mm 3 mps 751 mmHg 59%
    02:00 +30°C° 0 mm 3 mps 750 mmHg 62%
    03:00 +29°C° 0 mm 3 mps 750 mmHg 65%
    04:00 +29°C° 0 mm 2 mps 750 mmHg 67%
    05:00 +29°C° 0 mm 2 mps 750 mmHg 69%
    06:00 +28°C° 0 mm 2 mps 751 mmHg 71%
    07:00 +29°C° 0 mm 2 mps 751 mmHg 66%
    08:00 +31°C° 0 mm 2 mps 751 mmHg 61%
    09:00 +32°C° 0 mm 2 mps 752 mmHg 57%
    10:00 +34°C° 0 mm 3 mps 751 mmHg 51%
    11:00 +35°C° 0 mm 3 mps 751 mmHg 46%
    12:00 +37°C° 0 mm 4 mps 751 mmHg 40%
    13:00 +37°C° 0 mm 4 mps 750 mmHg 39%
    14:00 +37°C° 0 mm 4 mps 749 mmHg 38%
    15:00 +38°C° 0 mm 4 mps 748 mmHg 37%
    16:00 +37°C° 0 mm 4 mps 748 mmHg 39%
    17:00 +36°C° 0 mm 4 mps 748 mmHg 41%
    18:00 +36°C° 0 mm 4 mps 748 mmHg 43%
    19:00 +35°C° 0 mm 4 mps 749 mmHg 45%
    20:00 +34°C° 0 mm 3 mps 749 mmHg 46%
    21:00 +33°C° 0 mm 3 mps 749 mmHg 48%
    22:00 +33°C° 0 mm 3 mps 749 mmHg 50%
    23:00 +33°C° 0 mm 3 mps 749 mmHg 51%

    Tomorrow, 17 September, Tuesday

    Time Temperature Precipitation Wind Pressure Humidity
    00:00 +31°C° 0 mm 2 mps 749 mmHg 53%
    01:00 +31°C° 0 mm 2 mps 749 mmHg 56%
    02:00 +30°C° 0 mm 2 mps 749 mmHg 58%
    03:00 +30°C° 0 mm 2 mps 749 mmHg 60%
    04:00 +29°C° 0 mm 1 mps 749 mmHg 61%
    05:00 +29°C° 0 mm 1 mps 749 mmHg 63%
    06:00 +29°C° 0 mm 1 mps 749 mmHg 64%
    07:00 +30°C° 0 mm 1 mps 750 mmHg 60%
    08:00 +31°C° 0 mm 2 mps 750 mmHg 56%
    09:00 +32°C° 0 mm 2 mps 750 mmHg 52%
    10:00 +34°C° 0 mm 3 mps 750 mmHg 46%
    11:00 +36°C° 0 mm 4 mps 749 mmHg 41%
    12:00 +37°C° 0 mm 4 mps 749 mmHg 36%
    13:00 +37°C° 0 mm 4 mps 748 mmHg 34%
    14:00 +38°C° 0 mm 4 mps 748 mmHg 33%
    15:00 +40°C° 0 mm 5 mps 747 mmHg 31%
    16:00 +39°C° 0 mm 5 mps 747 mmHg 35%
    17:00 +37°C° 0 mm 4 mps 747 mmHg 38%
    18:00 +36°C° 0 mm 4 mps 747 mmHg 41%
    19:00 +35°C° 0 mm 4 mps 747 mmHg 44%
    20:00 +34°C° 0 mm 4 mps 748 mmHg 47%
    21:00 +34°C° 0 mm 4 mps 748 mmHg 50%
    22:00 +33°C° 0 mm 4 mps 748 mmHg 53%
    23:00 +32°C° 0 mm 4 mps 748 mmHg 55%

    Day after tomorrow, 18 September, Wednesday

    Time Temperature Precipitation Wind Pressure Humidity
    00:00 +32°C° 0 mm 4 mps 748 mmHg 57%
    01:00 +30°C° 0 mm 3 mps 748 mmHg 60%
    02:00 +30°C° 0 mm 3 mps 748 mmHg 62%
    03:00 +29°C° 0 mm 2 mps 748 mmHg 64%
    04:00 +29°C° 0 mm 2 mps 748 mmHg 66%
    05:00 +28°C° 0 mm 2 mps 748 mmHg 68%
    06:00 +28°C° 0 mm 2 mps 748 mmHg 70%
    07:00 +29°C° 0 mm 3 mps 749 mmHg 67%
    08:00 +30°C° 0 mm 3 mps 749 mmHg 64%
    09:00 +30°C° 0 mm 3 mps 749 mmHg 60%
    10:00 +33°C° 0 mm 3 mps 749 mmHg 55%
    11:00 +34°C° 0 mm 3 mps 749 mmHg 49%
    12:00 +36°C° 0 mm 3 mps 749 mmHg 44%
    13:00 +36°C° 0 mm 3 mps 748 mmHg 43%
    14:00 +36°C° 0 mm 3 mps 748 mmHg 42%
    15:00 +37°C° 0 mm 3 mps 747 mmHg 41%
    16:00 +36°C° 0 mm 3 mps 747 mmHg 43%
    17:00 +36°C° 0 mm 3 mps 747 mmHg 45%
    18:00 +35°C° 0 mm 3 mps 747 mmHg 47%
    19:00 +35°C° 0 mm 3 mps 747 mmHg 49%
    20:00 +34°C° 0 mm 3 mps 748 mmHg 50%
    21:00 +33°C° 0 mm 4 mps 748 mmHg 51%
    22:00 +33°C° 0 mm 3 mps 748 mmHg 55%
    23:00 +31°C° 0 mm 3 mps 748 mmHg 59%

    19 September, Thursday

    Time Temperature Precipitation Wind Pressure Humidity
    00:00 +30°C° 0 mm 3 mps 748 mmHg 62%
    01:00 +29°C° 0 mm 3 mps 748 mmHg 65%
    02:00 +29°C° 0 mm 3 mps 748 mmHg 68%
    03:00 +28°C° 0 mm 2 mps 748 mmHg 71%
    04:00 +28°C° 0 mm 2 mps 748 mmHg 73%
    05:00 +28°C° 0 mm 2 mps 748 mmHg 76%
    06:00 +27°C° 0 mm 2 mps 748 mmHg 78%
    07:00 +28°C° 0 mm 2 mps 749 mmHg 74%
    08:00 +29°C° 0 mm 3 mps 749 mmHg 70%
    09:00 +31°C° 0 mm 3 mps 749 mmHg 65%
    10:00 +33°C° 0.7 mm 3 mps 749 mmHg 60%
    11:00 +34°C° 0.7 mm 3 mps 749 mmHg 55%
    12:00 +35°C° 0.7 mm 3 mps 748 mmHg 49%
    13:00 +35°C° 0.6 mm 3 mps 748 mmHg 49%
    14:00 +35°C° 0.6 mm 3 mps 747 mmHg 49%
    15:00 +36°C° 0.6 mm 4 mps 747 mmHg 48%
    16:00 +34°C° 0.4 mm 4 mps 747 mmHg 52%
    17:00 +33°C° 0.4 mm 5 mps 747 mmHg 56%
    18:00 +32°C° 0.4 mm 6 mps 747 mmHg 60%
    19:00 +30°C° 0.2 mm 6 mps 747 mmHg 62%
    20:00 +29°C° 0.2 mm 6 mps 747 mmHg 63%
    21:00 +28°C° 0.2 mm 5 mps 748 mmHg 65%
    22:00 +28°C° 0.1 mm 5 mps 748 mmHg 65%
    23:00 +28°C° 0.1 mm 5 mps 748 mmHg 66%

    20 September, Friday

    Time Temperature Precipitation Wind Pressure Humidity
    00:00 +28°C° 0.1 mm 5 mps 748 mmHg 66%
    01:00 +28°C° 0.5 mm 5 mps 748 mmHg 68%
    02:00 +27°C° 0.5 mm 4 mps 748 mmHg 70%
    03:00 +27°C° 0.5 mm 4 mps 748 mmHg 72%
    04:00 +27°C° 0 mm 4 mps 748 mmHg 74%
    05:00 +27°C° 0 mm 4 mps 748 mmHg 76%
    06:00 +27°C° 0 mm 4 mps 748 mmHg 78%
    07:00 +28°C° 0 mm 4 mps 749 mmHg 74%
    08:00 +29°C° 0 mm 4 mps 749 mmHg 71%
    09:00 +30°C° 0 mm 5 mps 749 mmHg 68%
    10:00 +32°C° 0 mm 5 mps 749 mmHg 60%
    11:00 +34°C° 0 mm 6 mps 749 mmHg 53%
    12:00 +35°C° 0 mm 6 mps 748 mmHg 46%
    13:00 +36°C° 0 mm 6 mps 748 mmHg 45%
    14:00 +36°C° 0 mm 7 mps 747 mmHg 44%
    15:00 +38°C° 0 mm 7 mps 747 mmHg 43%
    16:00 +36°C° 0 mm 7 mps 747 mmHg 47%
    17:00 +35°C° 0 mm 7 mps 746 mmHg 50%
    18:00 +34°C° 0 mm 7 mps 746 mmHg 54%
    19:00 +33°C° 0 mm 7 mps 747 mmHg 56%
    20:00 +32°C° 0 mm 6 mps 747 mmHg 59%
    21:00 +30°C° 0 mm 6 mps 748 mmHg 62%
    22:00 +30°C° 0 mm 6 mps 748 mmHg 63%
    23:00 +29°C° 0 mm 6 mps 748 mmHg 65%

    21 September, Saturday

    Time Temperature Precipitation Wind Pressure Humidity
    00:00 +29°C° 0 mm 6 mps 748 mmHg 67%
    01:00 +29°C° 0 mm 6 mps 748 mmHg 69%
    02:00 +28°C° 0 mm 6 mps 748 mmHg 71%
    03:00 +28°C° 0 mm 6 mps 748 mmHg 73%
    04:00 +27°C° 0 mm 6 mps 748 mmHg 75%
    05:00 +27°C° 0 mm 5 mps 749 mmHg 77%
    06:00 +27°C° 0 mm 5 mps 749 mmHg 79%
    07:00 +27°C° 0 mm 5 mps 749 mmHg 76%
    08:00 +28°C° 0 mm 6 mps 749 mmHg 74%
    09:00 +29°C° 0 mm 6 mps 750 mmHg 71%
    10:00 +30°C° 0 mm 6 mps 749 mmHg 66%
    11:00 +32°C° 0 mm 6 mps 749 mmHg 61%
    12:00 +33°C° 0 mm 5 mps 749 mmHg 56%
    13:00 +34°C° 0 mm 5 mps 748 mmHg 53%
    14:00 +35°C° 0 mm 5 mps 748 mmHg 51%
    15:00 +35°C° 0 mm 5 mps 747 mmHg 48%
    16:00 +35°C° 0 mm 5 mps 747 mmHg 49%
    17:00 +34°C° 0 mm 5 mps 747 mmHg 51%
    18:00 +34°C° 0 mm 4 mps 747 mmHg 52%
    19:00 +33°C° 0 mm 4 mps 747 mmHg 54%
    20:00 +33°C° 0 mm 4 mps 747 mmHg 56%
    21:00 +32°C° 0 mm 5 mps 748 mmHg 57%
    22:00 +32°C° 0 mm 5 mps 748 mmHg 61%
    23:00 +30°C° 0 mm 5 mps 748 mmHg 64%
    Show more